Back to catalog

CZ-4 DEB

AlivePO
NORAD 26134·DEBRIS·🇨🇳 China

Launched Oct 14, 1999 from Taiyuan Satellite Launch Center

Loading…

Next Passes (next 24 hours)

TLE

FreshSource: Space-Track

Epoch: Sep 14, 2026, 05:17 UTC

1 26134U 99057W   26257.22076866  .00000517  00000-0  36582-3 0  9995
2 26134  98.9857  49.1720 0417798  96.5165  74.4938 13.66431763313243

Track CZ-4 DEB in real time with AllMySat

Download on the App Store